Regional Weather Roundup
Issued by NWS Northern Indiana

Home | Current Version | Previous Version | Text Only | Print | Product List | Glossary Off
Versions: 1 2 3 4 5 6 7 8 9 10 11 12 13 14 15 16 17 18 19 20 21 22 23 24 25 26 27 28 29 30 31 32 33 34 35 36 37 38 39 40 41 42 43 44 45 46 47 48 49 50

000
ASUS43 KIWX 221110
RWRIWX

KIWX WEATHER ROUNDUP
NATIONAL WEATHER SERVICE NORTHERN INDIANA
700 AM EDT WED OCT 22 2014

NOTE: "FAIR" INDICATES FEW OR NO CLOUDS BELOW 12,000 FEET WITH NO
SIGNIFICANT WEATHER AND/OR OBSTRUCTIONS TO VISIBILITY.

* THESE STATIONS ARE NOT UNDER NWS QUALITY CONTROL. THEY ALSO MAY NOT
  REPORT WEATHER SUCH AS PRECIPITATION OR FOG.

INZ001>027-221200-
NORTHERN INDIANA

CITY           SKY/WX    TMP DP  RH WIND       PRES   REMARKS
GARY*          PTCLDY    37  36  93 CALM      30.33R
VALPARAISO     CLEAR     33  32  96 NE3       30.32R
MICHIGAN CITY* CLEAR     34  34 100 E3        30.33R
LAPORTE*       PTCLDY    32  32 100 CALM      30.33R
KNOX*            N/A     31  29  95 CALM      30.32R VSB 1
SOUTH BEND     CLEAR     33  29  85 CALM      30.33R
ELKHART*       PTCLDY    32  30  93 CALM      30.33
GOSHEN         CLEAR     36  33  89 N5        30.32R
MONTICELLO*    CLEAR     37  35  95 CALM      30.30R
LOGANSPORT*    CLEAR     36  32  87 N6        30.31S
ROCHESTER*     CLEAR     36  36 100 CALM      30.31S
WARSAW*        CLEAR     34  32  93 CALM      30.31R
ANGOLA*        MOCLDY    36  21  55 N5        30.30R
FORT WAYNE     CLOUDY    40  37  89 N6        30.30R
HUNTINGTON*    CLOUDY    37  35  92 N3        30.30R
PERU/GRISSOM   CLEAR     34  34 100 N2        30.30R
MARION*        CLOUDY    36  34  90 N6        30.30R

$$
INZ028>050-221200-
CENTRAL INDIANA

CITY           SKY/WX    TMP DP  RH WIND       PRES   REMARKS
LAFAYETTE      CLEAR     37  36  96 NE3       30.30R
KOKOMO*        CLEAR     36  32  87 NE7       30.30R
MUNCIE*        CLOUDY    42  37  82 N6        30.28R
INDIANAPOLIS   CLEAR     39  34  82 N8        30.28R

$$
MIZ043>046-050>051-056>058-064>065-071>073-077>080-221200-
SOUTHWEST LOWER MICHIGAN

CITY           SKY/WX    TMP DP  RH WIND       PRES   REMARKS
BATTLE CREEK   CLOUDY    35  31  85 N5        30.32R WCI  31
BENTON HARBOR  CLEAR     29  29 100 CALM      30.33R
COLDWATER*     CLOUDY    38  37  93 CALM      30.31R
HILLSDALE*     CLOUDY    41  38  91 N5        30.28R
HOLLAND        CLEAR     32  29  88 CALM      30.34R
GRAND RAPIDS   CLEAR     30  28  92 CALM      30.34R
KALAMAZOO      CLEAR     31  30  96 N3        30.33R
STURGIS*       CLEAR     34  34 100 N3        30.31R
THREE RIVERS*  FAIR      35  33  93 CALM      30.32S

$$
OHZ001>008-015>018-024>025-221200-
NORTHWEST OHIO

CITY           SKY/WX    TMP DP  RH WIND       PRES   REMARKS
WAUSEON*       CLOUDY    45  39  81 N6        30.28R
DEFIANCE       CLOUDY    44  38  79 N7        30.29R
FINDLAY        CLOUDY    45  39  79 N6        30.25R
TOLEDO EXPRESS CLOUDY    44  37  76 N7        30.27R
TOLEDO METCALF CLOUDY    46  38  73 N9        30.27R
LIMA           CLOUDY    44  39  82 N5        30.25R

$$
AND FOR LAKE MICHIGAN COASTAL AND OPEN LAKE BUOY OBSERVATIONS

STATION/POSITION TEMP    WIND        PRES    VSBY  WAVE
                 AIR SEA DIR/SP/G                  HT/PER
                 (F)     (DEG/KT/KT) (MB)    (MI)  (FT/S)
CALUMET HARBOR    44     210/  2/  3 1025.2R
MICHIGAN CITY     40     100/  8/ 10   N/A
SAINT JOSEPH      36                 1027.4S
SOUTH LAKE BUOY   46 54  100/ 10/ 12 1027.4R         3/ 4

$$
&&



USA.gov is the U.S. government's official web portal to all federal, state and local government web resources and services.